Marshall, MN

9:53 AM CDT on August 29, 2016 (GMT -0500)
Marshall Municipal-Ryan

Weather History for KMML - September, 2013

Change the Weather History Date:

Thursday, September 19, 2013

  Actual Average Record
Temperature  
Mean Temperature 66 °F -  
Max Temperature 77 °F 73 °F 96 °F (1984)
Min Temperature 55 °F 49 °F 30 °F (1991)
Cooling Degree Days 1    
Growing Degree Days 16 (Base 50)    
Moisture  
Dew Point 57 °F    
Average Humidity 69    
Maximum Humidity 94    
Minimum Humidity 36    
Precipitation  
Precipitation 1.05 in - - ()
Sea Level Pressure  
Sea Level Pressure 29.75 in    
Wind  
Wind Speed 10 mph (NW)    
Max Wind Speed 33 mph    
Max Gust Speed 56 mph    
Visibility 10 miles    
Events Thunderstorm    
Averages and records for this station are not official NWS values.
T = Trace of Precipitation, MM = Missing Value Source: NWS Daily Summary

Daily Weather History Graph

Daily Weather History Graph

Search for Another Location

Airport or City:

Trip Planner

Search our weather history database for the weather conditions in past years. The results will help you decide how hot, cold, wet, or windy it might be!

Date:

Astronomy

Sep. 19, 2013 Rise Set
Actual Time 7:07 AM CDT 7:25 PM CDT
Civil Twilight 6:38 AM CDT 7:54 PM CDT
Nautical Twilight 6:03 AM CDT 8:29 PM CDT
Astronomical Twilight 5:28 AM CDT 9:04 PM CDT
Moon 7:21 PM CDT (9/19) 7:19 AM CDT (9/19)
Length of Visible Light 13h 16m
Length of Day
12h 18m
Full, 100% of the Moon is Illuminated
Sep 19
Full
Sep 26
Last Quarter
Oct 4
New
Oct 11
First Quarter
Oct 18
Full

Hourly Weather History & Observations

Time (CDT) Temp. Dew Point Humidity Pressure Visibility Wind Dir Wind Speed Gust Speed Precip Events Conditions
12:15 AM 75.2 °F 66.2 °F 73% 29.63 in 10.0 mi South 10.4 mph - N/A   Clear
12:35 AM 75.2 °F 66.2 °F 73% 29.63 in 10.0 mi South 9.2 mph - N/A   Clear
12:55 AM 73.4 °F 66.2 °F 78% 29.65 in 10.0 mi South 4.6 mph - N/A   Clear
1:15 AM 73.4 °F 66.2 °F 78% 29.65 in 10.0 mi SSE 4.6 mph - N/A   Clear
1:35 AM 71.6 °F 66.2 °F 83% 29.68 in 10.0 mi NW 9.2 mph - N/A   Clear
1:55 AM 71.6 °F 66.2 °F 83% 29.68 in 10.0 mi NNE 3.5 mph - N/A   Clear
2:15 AM 71.6 °F 64.4 °F 78% 29.66 in 10.0 mi SE 5.8 mph - N/A   Clear
2:35 AM 71.6 °F 64.4 °F 78% 29.66 in 10.0 mi SSE 9.2 mph - N/A   Clear
2:55 AM 69.8 °F 64.4 °F 83% 29.65 in 10.0 mi SSE 9.2 mph - N/A   Scattered Clouds
3:15 AM 71.6 °F 64.4 °F 78% 29.66 in 10.0 mi SSE 4.6 mph - N/A   Partly Cloudy
3:35 AM 69.8 °F 64.4 °F 83% 29.64 in 10.0 mi East 3.5 mph - N/A   Clear
3:55 AM 69.8 °F 64.4 °F 83% 29.63 in 10.0 mi NE 5.8 mph - N/A   Clear
4:15 AM 68.0 °F 64.4 °F 88% 29.64 in 10.0 mi SSE 5.8 mph - N/A   Clear
4:35 AM 69.8 °F 64.4 °F 83% 29.64 in 10.0 mi South 4.6 mph - N/A   Clear
4:55 AM 69.8 °F 64.4 °F 83% 29.63 in 10.0 mi South 8.1 mph - N/A   Clear
5:15 AM 69.8 °F 64.4 °F 83% 29.64 in 10.0 mi WNW 3.5 mph - N/A   Clear
5:35 AM 68.0 °F 62.6 °F 83% 29.64 in 10.0 mi NNW 5.8 mph - N/A   Partly Cloudy
5:55 AM 66.2 °F 64.4 °F 94% 29.64 in 10.0 mi NNE 5.8 mph - N/A   Clear
6:15 AM 66.2 °F 62.6 °F 88% 29.68 in 10.0 mi WSW 6.9 mph - N/A   Clear
6:35 AM 66.2 °F 62.6 °F 88% 29.65 in 10.0 mi North 4.6 mph - N/A   Partly Cloudy
6:55 AM 66.2 °F 62.6 °F 88% 29.64 in 9.0 mi NNW 6.9 mph - N/A   Partly Cloudy
7:15 AM 66.2 °F 64.4 °F 94% 29.62 in 10.0 mi NNE 5.8 mph - N/A   Clear
7:35 AM 68.0 °F 64.4 °F 88% 29.62 in 10.0 mi NE 3.5 mph - N/A   Clear
7:55 AM 68.0 °F 64.4 °F 88% 29.66 in 10.0 mi SW 10.4 mph - N/A Thunderstorm Thunderstorm
8:15 AM 62.6 °F 59.0 °F 88% 29.71 in 1.2 mi WNW 33.4 mph 56.4 mph 0.93 in Thunderstorm Thunderstorm
8:35 AM 62.6 °F 57.2 °F 82% 29.64 in 8.0 mi NW 29.9 mph 43.7 mph 1.04 in Thunderstorm Thunderstorm
8:55 AM 66.2 °F 59.0 °F 78% 29.64 in 10.0 mi NNW 21.9 mph 39.1 mph 1.05 in Thunderstorm Thunderstorm
9:15 AM 66.2 °F 60.8 °F 83% 29.62 in 10.0 mi North 19.6 mph 31.1 mph N/A   Scattered Clouds
9:35 AM 66.2 °F 60.8 °F 83% 29.65 in 10.0 mi NW 16.1 mph 20.7 mph N/A   Clear
9:55 AM 66.2 °F 60.8 °F 83% 29.68 in 10.0 mi NNW 8.1 mph - N/A   Clear
10:15 AM 66.2 °F 60.8 °F 83% 29.72 in 10.0 mi WNW 8.1 mph - N/A   Partly Cloudy
10:35 AM 66.2 °F 60.8 °F 83% 29.74 in 10.0 mi NNW 6.9 mph - N/A   Partly Cloudy
10:55 AM 66.2 °F 60.8 °F 83% 29.77 in 10.0 mi WNW 9.2 mph - N/A   Partly Cloudy
11:15 AM 66.2 °F 60.8 °F 83% 29.78 in 10.0 mi WNW 15.0 mph - N/A   Mostly Cloudy
11:35 AM 68.0 °F 60.8 °F 78% 29.78 in 10.0 mi NW 16.1 mph 20.7 mph N/A   Mostly Cloudy
11:55 AM 68.0 °F 60.8 °F 78% 29.78 in 10.0 mi NW 16.1 mph 21.9 mph N/A   Partly Cloudy
12:15 PM 69.8 °F 59.0 °F 68% 29.79 in 10.0 mi NNW 13.8 mph 21.9 mph N/A   Mostly Cloudy
12:35 PM 69.8 °F 59.0 °F 68% 29.80 in 10.0 mi NW 15.0 mph 20.7 mph N/A   Mostly Cloudy
12:55 PM 71.6 °F 59.0 °F 64% 29.80 in 10.0 mi NNW 17.3 mph 20.7 mph N/A   Mostly Cloudy
1:15 PM 71.6 °F 57.2 °F 60% 29.80 in 10.0 mi NW 17.3 mph 21.9 mph N/A   Scattered Clouds
1:35 PM 71.6 °F 57.2 °F 60% 29.80 in 10.0 mi NNW 16.1 mph 20.7 mph N/A   Partly Cloudy
1:55 PM 71.6 °F 55.4 °F 57% 29.80 in 10.0 mi NNW 13.8 mph 24.2 mph N/A   Clear
2:15 PM 73.4 °F 55.4 °F 53% 29.80 in 10.0 mi NNW 13.8 mph 20.7 mph N/A   Clear
2:35 PM 73.4 °F 55.4 °F 53% 29.80 in 10.0 mi NNW 11.5 mph - N/A   Clear
2:55 PM 73.4 °F 55.4 °F 53% 29.80 in 10.0 mi NW 11.5 mph - N/A   Clear
3:15 PM 73.4 °F 55.4 °F 53% 29.80 in 10.0 mi NNW 12.7 mph 20.7 mph N/A   Clear
3:35 PM 75.2 °F 53.6 °F 47% 29.79 in 10.0 mi NW 13.8 mph 20.7 mph N/A   Clear
3:55 PM 75.2 °F 53.6 °F 47% 29.79 in 10.0 mi NNW 11.5 mph 20.7 mph N/A   Clear
4:15 PM 75.2 °F 53.6 °F 47% 29.80 in 10.0 mi NNW 13.8 mph 19.6 mph N/A   Clear
4:35 PM 77.0 °F 51.8 °F 41% 29.80 in 10.0 mi NW 20.7 mph 26.5 mph N/A   Clear
4:55 PM 77.0 °F 48.2 °F 36% 29.80 in 10.0 mi NW 23.0 mph 27.6 mph N/A   Clear
5:15 PM 75.2 °F 46.4 °F 36% 29.81 in 10.0 mi NW 19.6 mph 27.6 mph N/A   Clear
5:35 PM 73.4 °F 48.2 °F 41% 29.82 in 10.0 mi Calm Calm - N/A   Clear
5:55 PM 73.4 °F 46.4 °F 38% 29.83 in 10.0 mi Calm Calm - N/A   Clear
6:15 PM 71.6 °F 46.4 °F 41% 29.82 in 10.0 mi Calm Calm - N/A   Clear
6:35 PM 69.8 °F 46.4 °F 43% 29.84 in 10.0 mi WNW 20.7 mph 28.8 mph N/A   Clear
6:55 PM 69.8 °F 46.4 °F 43% 29.85 in 10.0 mi WNW 17.3 mph 25.3 mph N/A   Clear
7:15 PM 68.0 °F 46.4 °F 46% 29.85 in 10.0 mi WNW 17.3 mph 25.3 mph N/A   Clear
7:35 PM 66.2 °F 46.4 °F 49% 29.84 in 10.0 mi WNW 11.5 mph - N/A   Partly Cloudy
7:55 PM 64.4 °F 46.4 °F 52% 29.85 in 10.0 mi WNW 12.7 mph - N/A   Partly Cloudy
8:15 PM 64.4 °F 48.2 °F 56% 29.85 in 10.0 mi WNW 12.7 mph - N/A   Scattered Clouds
8:35 PM 64.4 °F 48.2 °F 56% 29.85 in 10.0 mi NW 19.6 mph 24.2 mph N/A   Scattered Clouds
8:55 PM 60.8 °F 50.0 °F 68% 29.86 in 10.0 mi WNW 10.4 mph - N/A   Clear
9:15 PM 60.8 °F 50.0 °F 68% 29.86 in 10.0 mi WNW 11.5 mph - N/A   Mostly Cloudy
9:35 PM 59.0 °F 48.2 °F 67% 29.86 in 10.0 mi WNW 15.0 mph - N/A   Mostly Cloudy
9:55 PM 59.0 °F 48.2 °F 67% 29.88 in 10.0 mi NW 10.4 mph - N/A   Scattered Clouds
10:15 PM 59.0 °F 48.2 °F 67% 29.88 in 10.0 mi WNW 11.5 mph - N/A   Overcast
10:35 PM 57.2 °F 48.2 °F 72% 29.91 in 10.0 mi WNW 11.5 mph - N/A   Scattered Clouds
10:55 PM 57.2 °F 48.2 °F 72% 29.91 in 10.0 mi WNW 9.2 mph - N/A   Clear
11:15 PM 57.2 °F 48.2 °F 72% 29.92 in 10.0 mi WNW 9.2 mph - N/A   Clear
11:35 PM 55.4 °F 48.2 °F 77% 29.93 in 10.0 mi WNW 8.1 mph - N/A   Clear
11:55 PM 55.4 °F 46.4 °F 72% 29.92 in 10.0 mi WNW 11.5 mph - N/A   Clear